sat.trackr.live / text

‹ back to catalog

STARLINK-35577

NORAD 66538 · 2025-265Y

PAYLOAD ACTIVE UNKNOWN

§ Identity

Operator
Country
US
Launch date
2025-11-19
Launch site
AFETR
Launch vehicle
Mass (kg)
RCS (m²)

Purposes: comms

External: N2YO · Heavens-Above · Gunter

§ Orbital elements

Epoch: 2026-09-20T08:16:01.578144Z

Period
94.27 min
Inclination
42.9997°
Eccentricity
0.0002545
Mean motion
15.27572474 rev/d
Perigee alt
481.3 km
Apogee alt
484.8 km
Semi-major
6,861.2 km
B*
4.8719e-4
RAAN
258.5999°
Arg perigee
286.0063°
Mean anomaly
74.0509°
Rev number
4,688

§ Raw data

STARLINK-355771 66538U 25265Y   26263.34446271  .00013166  00000+0  48719-3 0  99962 66538  42.9997 258.5999 0002545 286.0063  74.0509 15.27572474 46883

JSON: /api/v1/satellites/66538 · /tle

For live sub-satellite position, see the globe view (requires WebGL).

§ Visibility from observer

Set your observer location to see the next 7 days of passes ≥ 10°. The values pass through the URL so the page stays shareable.

No JS? Fill the form by hand. The geolocation button needs JavaScript.